| time (UTC) | temp F | wind direction | speed knots | gust knots | rain 1hr in | rain 24hr in | rain mn in | humidity % | barometer mb |
| 20260504044537 | 49 | 281 | 11.3 | 17.4 | 0.00 | 0.00 | 0.00 | 55 | 1011.9 |
| 20260504043033 | 49 | 250 | 8.7 | 14.8 | 0.00 | 0.00 | 0.00 | 55 | 1012.0 |
| 20260504041525 | 48 | 246 | 9.6 | 13.9 | 0.00 | 0.00 | 0.00 | 55 | 1012.1 |
| 20260504040025 | 49 | 360 | 6.1 | 11.3 | 0.00 | 0.00 | 0.00 | 54 | 1012.2 |
| 20260504034533 | 50 | 360 | 7.8 | 10.4 | 0.00 | 0.00 | 0.00 | 52 | 1012.2 |
| 20260504033103 | 50 | 360 | 6.1 | 9.6 | 0.00 | 0.00 | 0.00 | 51 | 1012.2 |
| 20260504031554 | 51 | 360 | 7.0 | 9.6 | 0.00 | 0.00 | 0.00 | 49 | 1012.4 |
| 20260504030051 | 51 | 360 | 5.2 | 9.6 | 0.00 | 0.00 | 0.00 | 49 | 1012.6 |
| 20260504024551 | 51 | 360 | 5.2 | 8.7 | 0.00 | 0.00 | 0.00 | 48 | 1012.8 |
| 20260504023050 | 51 | 360 | 6.1 | 9.6 | 0.00 | 0.00 | 0.00 | 47 | 1012.7 |
| 20260504021550 | 52 | 360 | 5.2 | 9.6 | 0.00 | 0.00 | 0.00 | 46 | 1012.6 |
| 20260504020048 | 52 | 270 | 2.6 | 9.6 | 0.00 | 0.00 | 0.00 | 46 | 1012.8 |
| 20260504014549 | 52 | 360 | 4.3 | 9.6 | 0.00 | 0.00 | 0.00 | 45 | 1012.9 |
| 20260504013050 | 52 | 360 | 2.6 | 5.2 | 0.00 | 0.00 | 0.00 | 45 | 1012.8 |
| 20260504011548 | 52 | 360 | 6.1 | 12.2 | 0.00 | 0.00 | 0.00 | 44 | 1012.7 |
| 20260504010015 | 53 | 360 | 4.3 | 13.0 | 0.00 | 0.00 | 0.00 | 44 | 1012.6 |
| 20260504004515 | 53 | 313 | 8.7 | 20.9 | 0.00 | 0.00 | 0.00 | 43 | 1012.6 |
| 20260504003011 | 52 | 284 | 14.8 | 26.1 | 0.00 | 0.00 | 0.00 | 45 | 1012.4 |
| 20260504001511 | 53 | 308 | 7.0 | 12.2 | 0.00 | 0.00 | 0.00 | 45 | 1012.3 |
| 20260504000010 | 53 | 267 | 3.5 | 7.0 | 0.00 | 0.00 | 0.00 | 47 | 1012.2 |
| 20260503234510 | 53 | 301 | 3.5 | 14.8 | 0.00 | 0.00 | 0.00 | 47 | 1012.1 |
| 20260503233007 | 53 | 344 | 6.1 | 17.4 | 0.00 | 0.00 | 0.00 | 47 | 1012.3 |
| 20260503231506 | 53 | 327 | 12.2 | 18.2 | 0.00 | 0.00 | 0.00 | 46 | 1012.3 |
| 20260503230006 | 53 | 312 | 9.6 | 25.2 | 0.00 | 0.00 | 0.00 | 45 | 1012.3 |
| 20260503224505 | 54 | 276 | 12.2 | 19.1 | 0.00 | 0.00 | 0.00 | 44 | 1011.9 |
| 20260503223100 | 54 | 287 | 6.1 | 13.9 | 0.00 | 0.00 | 0.00 | 45 | 1011.8 |
| 20260503221557 | 53 | 277 | 7.8 | 17.4 | 0.00 | 0.00 | 0.00 | 46 | 1011.9 |
| 20260503220110 | 53 | 269 | 9.6 | 19.1 | 0.00 | 0.00 | 0.00 | 46 | 1012.2 |
| 20260503214557 | 53 | 314 | 14.8 | 26.9 | 0.00 | 0.00 | 0.00 | 45 | 1012.2 |
| 20260503213054 | 53 | 271 | 11.3 | 20.0 | 0.00 | 0.00 | 0.00 | 45 | 1012.0 |
| 20260503211606 | 53 | 294 | 12.2 | 16.5 | 0.00 | 0.00 | 0.00 | 45 | 1012.0 |
| 20260503210055 | 53 | 332 | 10.4 | 19.1 | 0.00 | 0.00 | 0.00 | 45 | 1012.0 |
| 20260503204553 | 52 | 316 | 9.6 | 16.5 | 0.00 | 0.00 | 0.00 | 46 | 1012.2 |
| 20260503203017 | 52 | 305 | 11.3 | 20.0 | 0.00 | 0.00 | 0.00 | 46 | 1012.4 |
| 20260503201525 | 52 | 315 | 7.0 | 18.2 | 0.00 | 0.00 | 0.00 | 47 | 1012.6 |
| 20260503200011 | 51 | 283 | 10.4 | 14.8 | 0.00 | 0.00 | 0.00 | 47 | 1012.8 |
| 20260503194507 | 51 | 334 | 7.0 | 23.5 | 0.00 | 0.00 | 0.00 | 48 | 1013.1 |
| 20260503193004 | 51 | 315 | 11.3 | 18.2 | 0.00 | 0.00 | 0.00 | 48 | 1013.3 |
| 20260503191503 | 50 | 333 | 11.3 | 19.1 | 0.00 | 0.00 | 0.00 | 48 | 1013.4 |
| 20260503190101 | 50 | 313 | 11.3 | 18.2 | 0.00 | 0.00 | 0.00 | 48 | 1013.6 |
| 20260503184559 | 50 | 320 | 10.4 | 20.0 | 0.00 | 0.00 | 0.00 | 47 | 1013.6 |
| 20260503183104 | 50 | 338 | 8.7 | 17.4 | 0.00 | 0.00 | 0.00 | 47 | 1013.5 |
| 20260503181621 | 50 | 314 | 12.2 | 17.4 | 0.00 | 0.00 | 0.00 | 47 | 1013.6 |
| 20260503180100 | 50 | 326 | 11.3 | 23.5 | 0.00 | 0.00 | 0.00 | 47 | 1013.7 |
| 20260503174555 | 49 | 338 | 13.0 | 20.0 | 0.00 | 0.00 | 0.00 | 45 | 1013.8 |
| 20260503173054 | 48 | 328 | 8.7 | 15.6 | 0.00 | 0.00 | 0.00 | 44 | 1013.9 |
| 20260503171543 | 49 | 284 | 7.8 | 17.4 | 0.00 | 0.00 | 0.00 | 45 | 1014.0 |
| 20260503150118 | 44 | 355 | 11.3 | 16.5 | 0.00 | 0.00 | 0.00 | 54 | 1015.5 |
| 20260503081516 | 35 | 311 | 1.7 | 7.0 | 0.00 | 0.00 | 0.00 | 81 | 1015.0 |
| 20260503071506 | 35 | 281 | 5.2 | 8.7 | 0.00 | 0.00 | 0.00 | 81 | 1015.0 |
| 20260503054525 | 35 | 317 | 7.8 | 11.3 | 0.00 | 0.00 | 0.00 | 79 | 1015.3 |
| 20260503053033 | 35 | 290 | 6.1 | 11.3 | 0.00 | 0.00 | 0.00 | 78 | 1015.4 |